Regional Weather Roundup
Issued by NWS

Home | Current Version | Previous Version | Graphics & Text | Print | Product List | Glossary On
Versions: 1 2 3 4 5 6 7 8 9 10 11 12 13 14 15 16 17 18 19 20 21 22 23 24 25 26 27 28 29 30 31 32 33 34 35 36 37 38 39 40 41 42 43 44 45 46 47 48 49 50
754
ASUS43 KLOT 060803
RWRIL

ILLINOIS REGIONAL WEATHER ROUNDUP
NATIONAL WEATHER SERVICE CHICAGO/ROMEOVILLE IL
200 AM CST TUE DEC 06 2016

NOTE: "FAIR" INDICATES FEW OR NO CLOUDS BELOW 12,000 FEET WITH NO
SIGNIFICANT WEATHER AND/OR OBSTRUCTIONS TO VISIBILITY.

* THESE STATIONS ARE NOT UNDER NWS QUALITY CONTROL. THEY ALSO MAY NOT
  REPORT WEATHER SUCH AS PRECIPITATION OR FOG.

ILZ001-002-007-009-015-016-024-060900-
NORTHWEST ILLINOIS

CITY           SKY/WX    TMP DP  RH WIND       PRES   REMARKS
MOLINE         CLOUDY    35  32  88 E8        29.83S FOG     WCI  29
STERLING*      CLOUDY    32  32 100 SE6       29.85F FOG     WCI  26
$$

ILZ003-004-008-010-011-017-018-060900-
NORTH CENTRAL ILLINOIS

CITY           SKY/WX    TMP DP  RH WIND       PRES   REMARKS
ROCKFORD       FOG       33  32  96 SE8       29.87F VSB 3/4 WCI  26
FREEPORT*      FOG       31  31  99 SE6       29.87S VSB 3/4 WCI  25
ROCHELLE*      FOG       32  32 100 SE10      29.85F VSB 3/4 WCI  24
$$

ILZ005-006-012>014-019>023-060900-
NORTHEAST ILLINOIS

CITY           SKY/WX    TMP DP  RH WIND       PRES   REMARKS
CHICAGO-OHARE  MOCLDY    34  32  92 E5        29.87F FOG     WCI  30
CHICAGO-MIDWAY CLOUDY    33  29  85 E3        29.88F FOG
AURORA         PTCLDY    31  29  92 E8        29.85F FOG     WCI  23
LANSING*       PTCLDY    31  31 100 E3        29.88S FOG
WAUKEGAN       CLOUDY    37  34  89 SE8       29.88F WCI  31
DUPAGE AIRPORT CLOUDY    33  31  92 E6        29.86F FOG     WCI  28
WHEELING       MOCLDY    35  33  92 E3        29.89F
NORTHERLY ISL    N/A     36  33  89 SE8         N/A  WCI  30
$$

LMZ740>746-060900-
SOUTHERN LAKE MICHIGAN

STATION/POSITION SKY/WX   TEMP    WIND        PRES    VSBY  WAVE
                          AIR SEA DIR/SP/G                  HT/PER
                          (F)     (DEG/KT/KT) (MB)    (MI)  (FT/S)
HARRISON CRIB              39     130/ 13/ 15   N/A
BURNHAM HARBOR             36     110/  5/ 11   N/A
CALUMET HARBOR             36     100/  6/  8 1011.3F
BURNS HARBOR               34     100/  9/ 14 1012.2F
$$

ILZ025>027-034>036-040-047-049-050-058-095>099-060900-
WEST-CENTRAL ILLINOIS

CITY           SKY/WX    TMP DP  RH WIND       PRES   REMARKS
QUINCY         CLOUDY    35  34  96 CALM      29.81R FOG
GALESBURG*     FOG       33  33 100 SE9       29.80F VSB 1   WCI  25
MACOMB*        CLOUDY    35  35  99 SE7       29.84R FOG     WCI  29
JACKSONVILLE*  CLOUDY    32  32  99 N3        29.81R FOG
$$

ILZ028>032-037-038-041>044-048-051>054-059>061-060900-
CENTRAL ILLINOIS

CITY           SKY/WX    TMP DP  RH WIND       PRES   REMARKS
BLOOMINGTON    CLOUDY    28  27  96 NE8       29.82S FOG     WCI  20
DECATUR        CLOUDY    34  32  92 E6        29.81S WCI  29
PEORIA         CLOUDY    33  32  96 NE6       29.85R FOG     WCI  28
SPRINGFIELD    MOCLDY    33  31  92 NE3       29.81S FOG
TAYLORVILLE    NOT AVBL
$$

ILZ033-039-045-046-055>057-062-063-060900-
EAST-CENTRAL ILLINOIS

CITY           SKY/WX    TMP DP  RH WIND       PRES   REMARKS
CHAMPAIGN      PTCLDY    34  31  88 E7        29.80F FOG     WCI  28
MATTOON        CLOUDY    35  32  88 NE6       29.78F WCI  30
PARIS*         PTCLDY    36  34  91 NE3       29.82R
$$

ILZ079-100>102-060900-
SOUTHWEST ILLINOIS

CITY           SKY/WX    TMP DP  RH WIND       PRES   REMARKS
BELLEVILLE     CLOUDY    39  38  99 NE3       29.76F
CAHOKIA*       LGT RAIN  39  35  86 N5        29.77F
SPARTA*        LGT RAIN  38  36  94 CALM      29.76F
$$

ILZ064>066-069>071-074>076-080>082-084>086-088>090-092>094-060900-
SOUTH-CENTRAL ILLINOIS

CITY           SKY/WX    TMP DP  RH WIND       PRES   REMARKS
CARBONDALE     LGT RAIN  40  39  97 NE5       29.74F FOG
CAIRO*         DRIZZLE   40  40  99 N6        29.72S
CENTRALIA*     CLOUDY    39  37  93 CALM      29.76F
SALEM*         CLOUDY    40  36  86 E5        29.76F
$$

ILZ067-068-072-073-078-083-087-091-060900-
SOUTHEAST ILLINOIS

CITY           SKY/WX    TMP DP  RH WIND       PRES   REMARKS
LAWRENCEVILLE  CLOUDY    40  36  86 N5        29.78F
HARRISBURG*    RAIN      40  40  98 N5        29.76R
ROBINSON*      DRIZZLE   37  36  93 N3        29.80S
CARMI*         RAIN      40  39  96 N6        29.75R
$$

ABBREVIATIONS USED IN REMARKS
   TC - TEMPERATURE IN CELSIUS
  WCI - WIND CHILL INDEX
   HX - HEAT INDEX
  VSB - VISIBILITY
$$





USA.gov is the U.S. government's official web portal to all federal, state and local government web resources and services.